SL-8 R/B, 23190

Orbit data source: Space-Track

SL-8 R/B, 23190 is space debris in LEO originally from a launch on Tue, 02 Aug 1994 UTC launched from the Plesetsk Missile And Space Complex (PKMTR). Debris objects in space refer to the collection of defunct objects orbiting the Earth. Examples of debris include non-operational satellites, rocket bodies, and fragments generated from explosions, collisions, or faulty payload assembly.

Loading next visibility...
Identifier
23190, 1994-045B
Orbit
LEO
Country
Flag of CISCIS
Related business
Manufacturer
Polyot
Mission
Spacecraft
Bus & Motor
S3, Unknown motor
Mass
1,434 kg wet, 1,434 kg dry
Launch date (UTC)
1994-08-02 (31 years ago)
Launch vehicle
Unknown
Launch site
Plesetsk Missile And Space Complex (PKMTR)
Object type
Payload
Rocket body
Debris
Shape & HBR
Cyl, 3.3 m
Radar Cross Section
14.646 m², Large (>1 m²)

Expand to show TLE details & history
Last TLE update: 13 hours ago

TLE from 13 hours ago
0 SL-8 R/B
1 23190U 94045B   25310.06100820  .00000089  00000-0  11731-3 0  9998
2 23190  74.0301  64.6954 0018272  81.5418 278.7771 13.74360021567838
Epoch: 2025-11-06T01:27Z
TLE epoch observation values (Epoch: 2025-11-06T01:27:51.108Z)
Latitude
-0.00009°
Longitude
-2.79231°
Altitude
984.466 km
Speed
7.361 km/s
True Right ascension
04h 18m 46s
True Declination
0° 00' 00"
Sunlit
Object was in full shadow at epoch
Visualization orbit readout
Latitude
Unknown
Longitude
Unknown
Altitude
Unknown
Speed
Unknown
Apparent Right ascension
Unknown
Apparent Declination
Unknown
Sunlit
N/A
Visualization observer readout
Local Sidereal Time
10:50:17
Azimuth
Unknown
Elevation
Unknown
Doppler factor
Unknown
Orbital elements
Apogee altitude
995.1 km
Perigee altitude
968.205 km
Semi-major axis
7,359.79 km
Eccentricity
0.00183
Inclination
74.0301°
RAAN
64.6954°
Arg. of periapsis
81.5418°
True anomaly
278.5701°
Mean anomaly
278.7771°
Eccentric anomaly
278.67361°
Mean motion
3.43752 °/min
Orbital period
104.73 mins
BSTAR
0.00011731
Loading maneuver chart data...
Computing Atmospheric mass density...
Loading historical data...
Loading historical data...
Loading historical data...
Loading historical data...
Loading historical data...
Loading historical data...
Loading historical data...
Other satellites on launch #45 in the year 1994 (1994-08-02 UTC)

Documentation

Showing up to 5 results
|